{"data":{"norad_id":69102,"intl_designator":"2026-106F","name":"LIJIAN-1 R/B","alt_names":[],"object_type":"ROCKET_BODY","status":"UNKNOWN","operator":null,"country":"PRC","launch_date":"2026-05-15","launch_site_code":"JSC","launch_vehicle":null,"mission":null,"orbit_class":"UNKNOWN","rcs_meters":null,"size_class":null,"mass_kg":null,"dimensions":null,"purposes":[],"wikipedia_slug":null,"has_3d_model":false,"image_url":null,"decayed_at":null,"tle_current":{"epoch":"2026-05-15T21:04:15.121056Z","epoch_age_seconds":863245,"freshness":"AGED","line1":"1 69102U 26106F   26135.87795279  .00014693  21527-5  13375-3 0  9991","line2":"2 69102  97.5061 218.5961 0181467  13.3087 347.2857 15.50517461   112","mean_motion":15.50517461,"eccentricity":0.0181467,"inclination_deg":97.5061,"raan_deg":218.5961,"arg_perigee_deg":13.3087,"mean_anomaly_deg":347.2857,"bstar":0.00013375,"rev_number":11,"period_min":92.872220805,"perigee_km":291.93729259236,"apogee_km":538.49110499057,"semimajor_km":6793.3511987915,"source":"CELESTRAK","updated_at":"2026-05-25T13:38:09.296182Z"}}}